Location: De Har
(53.3413°N, 6.6858°E)
Time: 20:56:49
(UTC+00:00)

NOSS 3-4 (A) - Pass Details

Date: 22 April 2026
Orbit: 769 x 1442 km, 63.4° (Epoch: 10 January)

Event Time Altitude Azimuth Distance (km) Brightness Sun altitude
Rises 01:42:48 0° 311° (NW) 3,587 6.6 -18.8°
Reaches altitude 10° 01:45:11 10° 312° (NW) 2,723 5.9 -18.6°
Maximum altitude 01:51:39 82° 41° (NE) 1,111 3.8 -18.0°
Drops below altitude 10° 01:59:21 10° 130° (SE) 3,207 6.2 -17.3°
Sets 02:02:20 0° 131° (SE) 4,263 6.8 -17.1°
